User: anonymous   Login
Location: Geroldsau
(48.7259°N, 8.2466°E)
Time: 19:05:44
(UTC+00:00)
Language:

FENGYUN 1C DEB - Orbit

View from above orbital plane
View from above orbital plane
View from above satellite
View from above satellite

Ground track
Ground track

The orbit data is extracted from the following two-line orbital elements,

1 30509U 99025AHX 22016.10658579  .00001530  00000-0  10843-2 0  9991
2 30509  98.4943 330.6855 0110355 113.4552 261.4974 13.96177877759776
Epoch (UTC): 16 January 2022 02:33:29
Eccentricity: 0.0110355
inclination: 98.4943°
perigee height: 826 km
apogee height: 987 km
right ascension of ascending node: 330.6855°
argument of perigee: 113.4552°
revolutions per day: 13.96177877
mean anomaly at epoch: 261.4974°
orbit number at epoch: 75977

The dashed part of the orbit path shows where the satellite is in the earth's shadow,  

DLR